Content
SEND FEEDBACK

Daily
Averages
Monthly
Summary
United States of America

BEAVER ISLAND, MICHIGAN


Home > North America > United States > Michigan
Elevation: 627 feet     Latitude: 45 43N     Longitude: 085 31W

WEATHER
 
SELECT A DAY
Number of Records: 330,531;   Date Range: 9/12/01 - 11/25/14
 
SHARE

PRINT THIS DATA

[ ← Previous Day ]
WEATHER ALMANAC - MARCH 12, 2014
[ Next Day → ]
[ °C ]   °F
Weather ElementAverageHighLow
Temperature10.3 °F26.2 °F (12:35 am)1.8 °F (11:56 pm)
Dewpoint-0.3 °F18.3 °F (1:35 am)-6.7 °F (11:55 am)
Humidity63.1 %80 % (2:16 am)44 % (3:56 pm)
Barometer30.00 in30.11 in (10:16 pm)29.89 in (12:35 am)
Wind Speed10.8 mph17.3 mph (10:36 am)
Wind Gust27.6 mph (9:15 am)
Weather ElementAverage
Visibility10 mi
Wind DirectionWSW (263.1 °)

Weather ElementTotal
Precipitation---
Heating Degree Days51 (Base 65)
Averaged from 71 records on March 12, 2014
WEATHER CONDITIONS BREAKOUT
WIND DIRECTION BREAKOUT
WEATHER BY HOUR - MARCH 12, 2014
[ °C ]   °F
Local TimeTemperatureDewpointHumidityBarometerVisibilityWind DirectionWind SpeedGust SpeedPrecipitationEventsConditions
12:35 AM26.2 °F16.7 °F67 %29.89 in10.0 miNNW (340°)8.1 mphClear
12:56 AM25.7 °F17.6 °F71 %29.89 in10.0 miNNW (340°)9.2 mphClear
1:16 AM25.2 °F18.1 °F75 %29.89 in10.0 miNorth (350°)9.2 mphClear
1:35 AM24.6 °F18.3 °F77 %29.89 in10.0 miNNW (340°)10.4 mph17.3 mphClear
1:56 AM23.5 °F18.0 °F79 %29.89 in10.0 miNNW (340°)8.1 mphScattered Clouds
2:16 AM23.0 °F17.6 °F80 %29.89 in10.0 miNorth (350°)6.9 mph18.4 mphMostly Cloudy
2:35 AM21.9 °F16.5 °F80 %29.89 in10.0 miNorth (350°)10.4 mph18.4 mphOvercast
2:56 AM21.2 °F15.6 °F79 %29.89 in10.0 miNNW (340°)12.7 mph20.7 mphOvercast
3:15 AM20.1 °F14.0 °F77 %29.89 in10.0 miNNW (340°)11.5 mph18.4 mphOvercast
3:35 AM18.7 °F12.6 °F77 %29.90 in10.0 miNNW (340°)12.7 mph18.4 mphScattered Clouds
3:56 AM16.7 °F9.0 °F72 %29.91 in10.0 miNorth (360°)10.4 mph20.7 mphClear
4:15 AM15.6 °F7.7 °F71 %29.91 in10.0 miNorth (350°)11.5 mph20.7 mphClear
4:36 AM14.4 °F6.6 °F71 %29.91 in10.0 miNorth (350°)10.4 mph19.6 mphClear
4:56 AM13.3 °F6.1 °F73 %29.90 in10.0 miNorth (350°)12.7 mph20.7 mphClear
5:15 AM12.4 °F5.2 °F73 %29.90 in10.0 miNorth (350°)10.4 mph16.1 mphClear
5:36 AM11.5 °F4.5 °F73 %29.92 in10.0 miNorth (350°)11.5 mph23.0 mphClear
5:55 AM10.4 °F3.6 °F74 %29.91 in10.0 miNorth (350°)10.4 mph16.1 mphClear
6:15 AM9.1 °F2.3 °F74 %29.93 in10.0 miNorth (350°)10.4 mph21.9 mphClear
6:36 AM8.2 °F1.8 °F75 %29.94 in10.0 miNorth (350°)12.7 mph23.0 mphClear
6:55 AM7.7 °F1.2 °F75 %29.95 in10.0 miNorth (360°)12.7 mph23.0 mphClear
7:16 AM7.3 °F0.5 °F74 %29.96 in10.0 miNorth (360°)10.4 mph19.6 mphClear
7:36 AM6.8 °F-0.4 °F72 %29.98 in10.0 miNorth (10°)10.4 mph19.6 mphClear
7:55 AM6.3 °F-4.0 °F63 %29.98 in10.0 miNorth (360°)12.7 mph20.7 mphClear
8:16 AM5.4 °F-5.4 °F61 %29.98 in10.0 miNorth (10°)13.8 mph23.0 mphClear
8:19 AM5.2 °F-5.6 °F61 %29.99 in10.0 miNorth (10°)12.7 mph19.6 mphClear
8:56 AM4.6 °F-6.0 °F62 %30.00 in10.0 miNNE (20°)13.8 mph20.7 mphClear
9:15 AM4.6 °F-5.8 °F62 %30.00 in10.0 miNorth (10°)12.7 mph27.6 mphClear
9:36 AM4.5 °F-5.6 °F63 %30.00 in10.0 miNorth (10°)15.0 mph19.6 mphClear
9:55 AM4.1 °F-5.8 °F64 %30.01 in10.0 miNorth (360°)13.8 mph18.4 mphClear
10:15 AM4.5 °F-5.8 °F63 %30.01 in10.0 miNNE (20°)15.0 mph21.9 mphClear
10:36 AM4.8 °F-5.6 °F62 %30.01 in10.0 miNorth (10°)17.3 mph25.3 mphClear
10:55 AM5.0 °F-6.3 °F60 %30.02 in10.0 miNNE (20°)16.1 mph24.2 mphClear
11:16 AM5.7 °F-6.5 °F57 %30.02 in10.0 miNorth (10°)16.1 mph24.2 mphClear
11:36 AM6.6 °F-6.3 °F55 %30.02 in10.0 miNNE (20°)13.8 mph21.9 mphClear
11:55 AM6.8 °F-6.7 °F54 %30.02 in10.0 miNorth (360°)15.0 mph23.0 mphClear
12:16 PM7.5 °F-6.3 °F53 %30.02 in10.0 miNorth (10°)13.8 mph19.6 mphClear
12:35 PM8.1 °F-6.0 °F53 %30.02 in10.0 miNorth (10°)11.5 mphClear
12:55 PM8.8 °F-5.8 °F52 %30.02 in10.0 miNorth (10°)12.7 mph19.6 mphClear
1:16 PM9.5 °F-5.6 °F50 %30.01 in10.0 miNNE (20°)15.0 mph21.9 mphClear
1:35 PM10.6 °F-4.7 °F50 %30.01 in10.0 miNorth (350°)12.7 mph19.6 mphClear
1:56 PM10.6 °F-4.0 °F52 %30.01 in10.0 miNW (320°)11.5 mph17.3 mphClear
2:16 PM10.8 °F-3.6 °F52 %30.00 in10.0 miNW (320°)12.7 mph21.9 mphClear
2:35 PM10.4 °F-3.8 °F53 %30.00 in10.0 miNNW (330°)13.8 mph24.2 mphClear
2:56 PM11.3 °F-3.8 °F51 %30.00 in10.0 miNNW (330°)11.5 mph19.6 mphClear
3:15 PM11.3 °F-4.9 °F48 %30.00 in10.0 miNNW (340°)11.5 mph20.7 mphClear
3:35 PM11.3 °F-6.0 °F46 %30.00 in10.0 miNNE (20°)11.5 mph20.7 mphClear
3:56 PM11.8 °F-6.3 °F44 %30.00 in10.0 miNorth (10°)15.0 mph18.4 mphClear
4:15 PM11.7 °F-5.8 °F46 %30.00 in10.0 miNorth (360°)11.5 mph19.6 mphClear
4:36 PM11.8 °F-5.3 °F46 %30.00 in10.0 miNorth (360°)13.8 mph21.9 mphClear
4:56 PM11.8 °F-4.9 °F47 %30.01 in10.0 miNorth (360°)11.5 mph20.7 mphClear
5:15 PM11.8 °F-3.6 °F50 %30.02 in10.0 miNNW (340°)9.2 mph17.3 mphClear
5:36 PM11.1 °F-4.4 °F50 %30.02 in10.0 miNorth (350°)13.8 mph19.6 mphClear
5:56 PM11.1 °F-4.9 °F49 %30.03 in10.0 miNorth (350°)11.5 mph17.3 mphClear
6:15 PM10.8 °F-4.9 °F49 %30.03 in10.0 miNorth (350°)8.1 mphClear
6:36 PM10.2 °F-4.7 °F51 %30.04 in10.0 miNNW (340°)8.1 mphClear
6:55 PM10.2 °F-4.7 °F51 %30.05 in10.0 miNorth (360°)8.1 mphClear
7:15 PM9.5 °F-5.3 °F51 %30.06 in10.0 miNorth (350°)6.9 mphClear
7:36 PM8.4 °F-3.3 °F59 %30.06 in10.0 miNNW (340°)6.9 mphClear
7:55 PM7.5 °F-2.6 °F63 %30.07 in10.0 miNNW (330°)6.9 mphClear
8:16 PM6.8 °F-3.3 °F63 %30.08 in10.0 miNNW (330°)8.1 mphClear
8:36 PM6.3 °F-4.0 °F63 %30.08 in10.0 miNNW (330°)8.1 mphClear
8:55 PM5.9 °F-4.0 °F64 %30.09 in10.0 miNNW (330°)6.9 mphClear
9:16 PM5.4 °F-4.0 °F65 %30.09 in10.0 miNW (320°)8.1 mphClear
9:35 PM5.0 °F-4.0 °F66 %30.10 in10.0 miNNW (330°)6.9 mphClear
9:55 PM4.5 °F-3.6 °F69 %30.10 in10.0 miNNW (330°)5.8 mphClear
10:16 PM3.7 °F-4.0 °F70 %30.11 in10.0 miNW (320°)4.6 mphClear
10:35 PM3.2 °F-4.0 °F72 %30.11 in10.0 miNNW (330°)4.6 mphClear
10:56 PM2.7 °F-4.0 °F74 %30.11 in10.0 miNW (320°)4.6 mphClear
11:15 PM2.3 °F-3.6 °F76 %30.11 in10.0 miNW (310°)5.8 mphClear
11:36 PM2.1 °F-3.3 °F78 %30.11 in10.0 miNW (310°)5.8 mphClear
11:56 PM1.8 °F-3.3 °F79 %30.10 in10.0 miNW (320°)4.6 mphClear
Hourly data recorded from KSJX, located miles away from Beaver Island, Michigan







STORIES FROM OUR PARTNERS